| time (UTC) | temp F | wind direction | speed MPH | gust MPH | rain 1hr in | rain 24hr in | rain mn in | humidity % | barometer mb |
| 20260904212041 | 98 | 215 | 1.0 | 7.0 | 0.00 | 0.00 | 0.00 | 40 | 1014.7 |
| 20260904211609 | 98 | 117 | 3.0 | 7.0 | 0.00 | 0.00 | 0.00 | 40 | 1014.7 |
| 20260904211042 | 98 | 236 | 1.0 | 7.0 | 0.00 | 0.00 | 0.00 | 41 | 1014.8 |
| 20260904210542 | 98 | 105 | 2.0 | 7.0 | 0.00 | 0.00 | 0.00 | 41 | 1014.8 |
| 20260904210104 | 97 | 0 | 1.0 | 4.0 | 0.00 | 0.00 | 0.00 | 42 | 1014.9 |
| 20260904205543 | 98 | 226 | 1.0 | 6.0 | 0.00 | 0.00 | 0.00 | 42 | 1014.8 |
| 20260904205042 | 98 | 238 | 3.0 | 7.0 | 0.00 | 0.00 | 0.00 | 42 | 1015.0 |
| 20260904204604 | 98 | 169 | 3.0 | 7.0 | 0.00 | 0.00 | 0.00 | 42 | 1015.1 |
| 20260904204042 | 98 | 223 | 1.0 | 5.0 | 0.00 | 0.00 | 0.00 | 42 | 1015.1 |
| 20260904203544 | 97 | 0 | 1.0 | 7.0 | 0.00 | 0.00 | 0.00 | 42 | 1015.1 |
| 20260904203102 | 97 | 126 | 3.0 | 7.0 | 0.00 | 0.00 | 0.00 | 42 | 1015.1 |
| 20260904202542 | 97 | 157 | 2.0 | 7.0 | 0.00 | 0.00 | 0.00 | 42 | 1015.2 |
| 20260904202041 | 98 | 245 | 3.0 | 7.0 | 0.00 | 0.00 | 0.00 | 41 | 1015.3 |
| 20260904201636 | 98 | 160 | 3.0 | 7.0 | 0.00 | 0.00 | 0.00 | 42 | 1015.3 |
| 20260904201042 | 97 | 225 | 2.0 | 5.0 | 0.00 | 0.00 | 0.00 | 44 | 1015.3 |
| 20260904200544 | 97 | 239 | 2.0 | 5.0 | 0.00 | 0.00 | 0.00 | 43 | 1015.4 |
| 20260904200122 | 96 | 0 | 1.0 | 10.0 | 0.00 | 0.00 | 0.00 | 44 | 1015.5 |
| 20260904195545 | 96 | 213 | 2.0 | 10.0 | 0.00 | 0.00 | 0.00 | 43 | 1015.6 |
| 20260904195041 | 96 | 146 | 3.0 | 10.0 | 0.00 | 0.00 | 0.00 | 46 | 1015.8 |
| 20260904194608 | 96 | 190 | 2.0 | 7.0 | 0.00 | 0.00 | 0.00 | 45 | 1015.8 |
| 20260904194041 | 97 | 132 | 3.0 | 7.0 | 0.00 | 0.00 | 0.00 | 45 | 1015.9 |
| 20260904193542 | 97 | 186 | 1.0 | 7.0 | 0.00 | 0.00 | 0.00 | 44 | 1016.0 |
| 20260904193106 | 96 | 219 | 3.0 | 8.0 | 0.00 | 0.00 | 0.00 | 45 | 1015.9 |
| 20260904192541 | 96 | 199 | 3.0 | 8.0 | 0.00 | 0.00 | 0.00 | 45 | 1015.9 |
| 20260904192042 | 96 | 211 | 2.0 | 8.0 | 0.00 | 0.00 | 0.00 | 48 | 1015.9 |
| 20260904191559 | 95 | 151 | 2.0 | 7.0 | 0.00 | 0.00 | 0.00 | 48 | 1016.1 |
| 20260904191044 | 95 | 150 | 3.0 | 8.0 | 0.00 | 0.00 | 0.00 | 48 | 1016.2 |
| 20260904190544 | 96 | 210 | 2.0 | 8.0 | 0.00 | 0.00 | 0.00 | 45 | 1016.2 |
| 20260904190115 | 95 | 188 | 3.0 | 8.0 | 0.00 | 0.00 | 0.00 | 48 | 1016.3 |
| 20260904185544 | 95 | 247 | 2.0 | 7.0 | 0.00 | 0.00 | 0.00 | 45 | 1016.4 |
| 20260904185046 | 95 | 0 | 3.0 | 7.0 | 0.00 | 0.00 | 0.00 | 46 | 1016.5 |
| 20260904184600 | 95 | 212 | 2.0 | 7.0 | 0.00 | 0.00 | 0.00 | 50 | 1016.5 |
| 20260904184042 | 95 | 121 | 2.0 | 9.0 | 0.00 | 0.00 | 0.00 | 47 | 1016.6 |
| 20260904183542 | 95 | 169 | 3.0 | 10.0 | 0.00 | 0.00 | 0.00 | 48 | 1016.6 |
| 20260904183058 | 94 | 247 | 2.0 | 10.0 | 0.00 | 0.00 | 0.00 | 47 | 1016.6 |
| 20260904182542 | 94 | 223 | 2.0 | 10.0 | 0.00 | 0.00 | 0.00 | 48 | 1016.7 |
| 20260904182042 | 94 | 241 | 3.0 | 7.0 | 0.00 | 0.00 | 0.00 | 48 | 1016.8 |
| 20260904181607 | 95 | 134 | 3.0 | 7.0 | 0.00 | 0.00 | 0.00 | 49 | 1016.7 |
| 20260904181042 | 95 | 82 | 3.0 | 7.0 | 0.00 | 0.00 | 0.00 | 48 | 1016.9 |
| 20260904180543 | 94 | 184 | 3.0 | 6.0 | 0.00 | 0.00 | 0.00 | 49 | 1017.0 |
| 20260904180104 | 94 | 236 | 2.0 | 7.0 | 0.00 | 0.00 | 0.00 | 49 | 1017.1 |
| 20260904175542 | 94 | 119 | 2.0 | 7.0 | 0.00 | 0.00 | 0.00 | 48 | 1017.1 |
| 20260904175044 | 94 | 120 | 2.0 | 7.0 | 0.00 | 0.00 | 0.00 | 50 | 1017.1 |
| 20260904174558 | 93 | 207 | 3.0 | 8.0 | 0.00 | 0.00 | 0.00 | 49 | 1017.2 |
| 20260904174043 | 93 | 242 | 3.0 | 8.0 | 0.00 | 0.00 | 0.00 | 48 | 1017.4 |
| 20260904173541 | 93 | 152 | 2.0 | 8.0 | 0.00 | 0.00 | 0.00 | 50 | 1017.4 |
| 20260904173125 | 93 | 123 | 3.0 | 7.0 | 0.00 | 0.00 | 0.00 | 50 | 1017.6 |
| 20260904172542 | 93 | 153 | 3.0 | 10.0 | 0.00 | 0.00 | 0.00 | 52 | 1017.6 |
| 20260904172043 | 93 | 166 | 3.0 | 10.0 | 0.00 | 0.00 | 0.00 | 52 | 1017.7 |
| 20260904171611 | 92 | 246 | 1.0 | 9.0 | 0.00 | 0.00 | 0.00 | 53 | 1017.7 |
| 20260904171046 | 92 | 136 | 2.0 | 8.0 | 0.00 | 0.00 | 0.00 | 55 | 1017.9 |
| 20260904170542 | 91 | 138 | 3.0 | 7.0 | 0.00 | 0.00 | 0.00 | 53 | 1017.9 |
| 20260904170101 | 91 | 200 | 1.0 | 7.0 | 0.00 | 0.00 | 0.00 | 56 | 1017.9 |
| 20260904165542 | 91 | 183 | 1.0 | 7.0 | 0.00 | 0.00 | 0.00 | 55 | 1017.8 |
| 20260904165042 | 91 | 271 | 2.0 | 9.0 | 0.00 | 0.00 | 0.00 | 55 | 1017.9 |
| 20260904164612 | 90 | 217 | 1.0 | 9.0 | 0.00 | 0.00 | 0.00 | 55 | 1017.9 |
| 20260904164042 | 90 | 221 | 2.0 | 9.0 | 0.00 | 0.00 | 0.00 | 56 | 1017.9 |
| 20260904163541 | 90 | 234 | 3.0 | 9.0 | 0.00 | 0.00 | 0.00 | 55 | 1018.0 |
| 20260904163055 | 91 | 277 | 2.0 | 9.0 | 0.00 | 0.00 | 0.00 | 55 | 1017.9 |
| 20260904162542 | 91 | 237 | 4.0 | 9.0 | 0.00 | 0.00 | 0.00 | 55 | 1017.9 |
| 20260904162043 | 91 | 218 | 3.0 | 9.0 | 0.00 | 0.00 | 0.00 | 56 | 1018.0 |
| 20260904161605 | 90 | 159 | 2.0 | 9.0 | 0.00 | 0.00 | 0.00 | 56 | 1017.9 |
| 20260904161042 | 90 | 218 | 2.0 | 11.0 | 0.00 | 0.00 | 0.00 | 57 | 1018.0 |
| 20260904160542 | 90 | 244 | 4.0 | 11.0 | 0.00 | 0.00 | 0.00 | 56 | 1018.0 |
| 20260904155543 | 90 | 215 | 2.0 | 6.0 | 0.00 | 0.00 | 0.00 | 55 | 1018.1 |
| 20260904155041 | 90 | 164 | 2.0 | 5.0 | 0.00 | 0.00 | 0.00 | 57 | 1018.0 |
| 20260904154607 | 89 | 179 | 2.0 | 10.0 | 0.00 | 0.00 | 0.00 | 56 | 1018.0 |
| 20260904154044 | 89 | 209 | 3.0 | 10.0 | 0.00 | 0.00 | 0.00 | 58 | 1018.1 |
| 20260904153543 | 89 | 256 | 1.0 | 6.0 | 0.00 | 0.00 | 0.00 | 60 | 1018.1 |
| 20260904153107 | 88 | 232 | 2.0 | 10.0 | 0.00 | 0.00 | 0.00 | 59 | 1018.0 |
| 20260904152544 | 88 | 236 | 3.0 | 10.0 | 0.00 | 0.00 | 0.00 | 61 | 1018.0 |
| 20260904152042 | 88 | 197 | 4.0 | 10.0 | 0.00 | 0.00 | 0.00 | 60 | 1018.1 |
| 20260904151616 | 88 | 206 | 5.0 | 10.0 | 0.00 | 0.00 | 0.00 | 61 | 1018.0 |
| 20260904151042 | 88 | 277 | 2.0 | 6.0 | 0.00 | 0.00 | 0.00 | 61 | 1018.0 |
| 20260904150542 | 88 | 256 | 2.0 | 5.0 | 0.00 | 0.00 | 0.00 | 62 | 1018.0 |
| 20260904150125 | 88 | 238 | 1.0 | 6.0 | 0.00 | 0.00 | 0.00 | 62 | 1018.0 |
| 20260904145542 | 87 | 247 | 1.0 | 7.0 | 0.00 | 0.00 | 0.00 | 63 | 1017.9 |
| 20260904145043 | 86 | 160 | 3.0 | 7.0 | 0.00 | 0.00 | 0.00 | 64 | 1017.8 |
| 20260904144604 | 86 | 238 | 2.0 | 7.0 | 0.00 | 0.00 | 0.00 | 67 | 1017.8 |
| 20260904144042 | 85 | 259 | 2.0 | 7.0 | 0.00 | 0.00 | 0.00 | 67 | 1017.9 |
| 20260904143542 | 85 | 259 | 1.0 | 8.0 | 0.00 | 0.00 | 0.00 | 67 | 1017.8 |
| 20260904143117 | 85 | 243 | 2.0 | 8.0 | 0.00 | 0.00 | 0.00 | 67 | 1017.7 |
| 20260904142542 | 85 | 252 | 2.0 | 7.0 | 0.00 | 0.00 | 0.00 | 67 | 1017.6 |
| 20260904142043 | 85 | 257 | 0.0 | 3.0 | 0.00 | 0.00 | 0.00 | 69 | 1017.7 |
| 20260904141617 | 84 | 0 | 0.0 | 3.0 | 0.00 | 0.00 | 0.00 | 69 | 1017.7 |
| 20260904141042 | 84 | 161 | 0.0 | 3.0 | 0.00 | 0.00 | 0.00 | 70 | 1017.7 |
| 20260904140544 | 83 | 176 | 0.0 | 4.0 | 0.00 | 0.00 | 0.00 | 72 | 1017.7 |
| 20260904140106 | 83 | 167 | 1.0 | 4.0 | 0.00 | 0.00 | 0.00 | 73 | 1017.8 |
| 20260904135543 | 82 | 0 | 0.0 | 3.0 | 0.00 | 0.00 | 0.00 | 73 | 1017.9 |
| 20260904135042 | 81 | 159 | 0.0 | 2.0 | 0.00 | 0.00 | 0.00 | 74 | 1017.8 |
| 20260904134620 | 81 | 240 | 0.0 | 5.0 | 0.00 | 0.00 | 0.00 | 75 | 1017.8 |
| 20260904134042 | 80 | 201 | 0.0 | 5.0 | 0.00 | 0.00 | 0.00 | 77 | 1017.8 |
| 20260904133544 | 79 | 0 | 1.0 | 4.0 | 0.00 | 0.00 | 0.00 | 78 | 1017.9 |
| 20260904133100 | 78 | 0 | 1.0 | 3.0 | 0.00 | 0.00 | 0.00 | 80 | 1017.8 |
| 20260904132547 | 78 | 0 | 1.0 | 3.0 | 0.00 | 0.00 | 0.00 | 80 | 1017.9 |
| 20260904132042 | 77 | 0 | 0.0 | 2.0 | 0.00 | 0.00 | 0.00 | 82 | 1017.8 |
| 20260904131559 | 76 | 134 | 0.0 | 2.0 | 0.00 | 0.00 | 0.00 | 82 | 1017.8 |
| 20260904131043 | 76 | 114 | 0.0 | 1.0 | 0.00 | 0.00 | 0.00 | 83 | 1017.7 |
| 20260904130542 | 76 | 0 | 0.0 | 1.0 | 0.00 | 0.00 | 0.00 | 84 | 1017.6 |
| 20260904130109 | 75 | 0 | 0.0 | 0.0 | 0.00 | 0.00 | 0.00 | 84 | 1017.6 |
| 20260904125543 | 74 | 0 | 0.0 | 2.0 | 0.00 | 0.00 | 0.00 | 85 | 1017.6 |
| 20260904125042 | 74 | 0 | 0.0 | 2.0 | 0.00 | 0.00 | 0.00 | 86 | 1017.5 |
| 20260904124605 | 74 | 0 | 0.0 | 1.0 | 0.00 | 0.00 | 0.00 | 86 | 1017.5 |
| 20260904124043 | 73 | 0 | 0.0 | 1.0 | 0.00 | 0.00 | 0.00 | 87 | 1017.3 |
| 20260904123542 | 73 | 0 | 0.0 | 1.0 | 0.00 | 0.00 | 0.00 | 87 | 1017.4 |
| 20260904123100 | 73 | 0 | 0.0 | 1.0 | 0.00 | 0.00 | 0.00 | 87 | 1017.4 |
| 20260904122546 | 73 | 0 | 0.0 | 1.0 | 0.00 | 0.00 | 0.00 | 87 | 1017.3 |
| 20260904122048 | 73 | 0 | 0.0 | 0.0 | 0.00 | 0.00 | 0.00 | 87 | 1017.4 |
| 20260904121607 | 72 | 0 | 0.0 | 0.0 | 0.00 | 0.00 | 0.00 | 87 | 1017.3 |
| 20260904121046 | 72 | 0 | 0.0 | 0.0 | 0.00 | 0.00 | 0.00 | 87 | 1017.2 |
| 20260904120545 | 72 | 0 | 0.0 | 0.0 | 0.00 | 0.00 | 0.00 | 87 | 1017.2 |
| 20260904120108 | 72 | 0 | 0.0 | 0.0 | 0.00 | 0.00 | 0.00 | 86 | 1017.1 |
| 20260904115546 | 72 | 0 | 0.0 | 0.0 | 0.00 | 0.00 | 0.00 | 86 | 1017.0 |
| 20260904115043 | 73 | 0 | 0.0 | 0.0 | 0.00 | 0.00 | 0.00 | 86 | 1017.1 |
| 20260904114607 | 72 | 0 | 0.0 | 0.0 | 0.00 | 0.00 | 0.00 | 86 | 1017.0 |
| 20260904114046 | 72 | 0 | 0.0 | 0.0 | 0.00 | 0.00 | 0.00 | 86 | 1017.0 |
| 20260904113543 | 72 | 0 | 0.0 | 0.0 | 0.00 | 0.00 | 0.00 | 86 | 1016.8 |
| 20260904113103 | 73 | 0 | 0.0 | 0.0 | 0.00 | 0.00 | 0.00 | 86 | 1016.8 |
| 20260904112546 | 73 | 0 | 0.0 | 0.0 | 0.00 | 0.00 | 0.00 | 85 | 1016.8 |
| 20260904112046 | 73 | 0 | 0.0 | 0.0 | 0.00 | 0.00 | 0.00 | 85 | 1016.7 |
| 20260904111608 | 73 | 0 | 0.0 | 1.0 | 0.00 | 0.00 | 0.00 | 85 | 1016.6 |
| 20260904111046 | 73 | 0 | 0.0 | 1.0 | 0.00 | 0.00 | 0.00 | 85 | 1016.5 |
| 20260904110546 | 73 | 0 | 0.0 | 0.0 | 0.00 | 0.00 | 0.00 | 85 | 1016.6 |
| 20260904110106 | 73 | 0 | 0.0 | 0.0 | 0.00 | 0.00 | 0.00 | 84 | 1016.5 |
| 20260904105549 | 73 | 0 | 0.0 | 0.0 | 0.00 | 0.00 | 0.00 | 83 | 1016.6 |
| 20260904105046 | 74 | 0 | 0.0 | 0.0 | 0.00 | 0.00 | 0.00 | 83 | 1016.5 |
| 20260904104602 | 74 | 0 | 0.0 | 1.0 | 0.00 | 0.00 | 0.00 | 83 | 1016.4 |
| 20260904104042 | 74 | 0 | 0.0 | 2.0 | 0.00 | 0.00 | 0.00 | 83 | 1016.5 |
| 20260904103543 | 74 | 0 | 0.0 | 2.0 | 0.00 | 0.00 | 0.00 | 83 | 1016.6 |
| 20260904103100 | 74 | 0 | 0.0 | 0.0 | 0.00 | 0.00 | 0.00 | 83 | 1016.6 |
| 20260904102547 | 74 | 0 | 0.0 | 0.0 | 0.00 | 0.00 | 0.00 | 83 | 1016.5 |
| 20260904102042 | 74 | 0 | 0.0 | 1.0 | 0.00 | 0.00 | 0.00 | 83 | 1016.5 |
| 20260904101603 | 74 | 0 | 0.0 | 1.0 | 0.00 | 0.00 | 0.00 | 82 | 1016.4 |
| 20260904101047 | 74 | 131 | 0.0 | 1.0 | 0.00 | 0.00 | 0.00 | 82 | 1016.4 |
| 20260904100546 | 74 | 0 | 0.0 | 1.0 | 0.00 | 0.00 | 0.00 | 82 | 1016.4 |
| 20260904100105 | 74 | 0 | 0.0 | 1.0 | 0.00 | 0.00 | 0.00 | 82 | 1016.3 |
| 20260904095546 | 74 | 0 | 0.0 | 0.0 | 0.00 | 0.00 | 0.00 | 82 | 1016.2 |
| 20260904095045 | 74 | 0 | 0.0 | 0.0 | 0.00 | 0.00 | 0.00 | 82 | 1016.2 |
| 20260904094605 | 74 | 0 | 0.0 | 0.0 | 0.00 | 0.00 | 0.00 | 82 | 1016.3 |
| 20260904094046 | 75 | 0 | 0.0 | 0.0 | 0.00 | 0.00 | 0.00 | 81 | 1016.2 |
| 20260904093546 | 75 | 0 | 0.0 | 1.0 | 0.00 | 0.00 | 0.00 | 81 | 1016.2 |
| 20260904093114 | 75 | 0 | 0.0 | 1.0 | 0.00 | 0.00 | 0.00 | 81 | 1016.0 |
| 20260904092547 | 75 | 0 | 0.0 | 1.0 | 0.00 | 0.00 | 0.00 | 81 | 1015.9 |
| 20260904092042 | 75 | 0 | 0.0 | 2.0 | 0.00 | 0.00 | 0.00 | 80 | 1015.8 |
| 20260904091605 | 75 | 139 | 0.0 | 2.0 | 0.00 | 0.00 | 0.00 | 80 | 1015.9 |
| 20260904091043 | 75 | 130 | 0.0 | 2.0 | 0.00 | 0.00 | 0.00 | 80 | 1015.9 |
| 20260904090541 | 75 | 139 | 0.0 | 1.0 | 0.00 | 0.00 | 0.00 | 81 | 1015.9 |
| 20260904090104 | 75 | 0 | 0.0 | 1.0 | 0.00 | 0.00 | 0.00 | 80 | 1015.8 |
| 20260904085541 | 75 | 148 | 0.0 | 1.0 | 0.00 | 0.00 | 0.00 | 80 | 1015.7 |
| 20260904085043 | 75 | 0 | 0.0 | 1.0 | 0.00 | 0.00 | 0.00 | 80 | 1015.7 |
| 20260904084600 | 75 | 140 | 0.0 | 1.0 | 0.00 | 0.00 | 0.00 | 80 | 1015.6 |
| 20260904084042 | 75 | 0 | 0.0 | 0.0 | 0.00 | 0.00 | 0.00 | 80 | 1015.6 |
| 20260904083543 | 75 | 0 | 0.0 | 0.0 | 0.00 | 0.00 | 0.00 | 80 | 1015.7 |
| 20260904083105 | 76 | 148 | 0.0 | 0.0 | 0.00 | 0.00 | 0.00 | 80 | 1015.6 |
| 20260904082544 | 76 | 0 | 0.0 | 0.0 | 0.00 | 0.00 | 0.00 | 79 | 1015.6 |
| 20260904082042 | 76 | 0 | 0.0 | 3.0 | 0.00 | 0.00 | 0.00 | 79 | 1015.6 |
| 20260904081602 | 76 | 0 | 0.0 | 3.0 | 0.00 | 0.00 | 0.00 | 79 | 1015.6 |
| 20260904081041 | 76 | 130 | 0.0 | 2.0 | 0.00 | 0.00 | 0.00 | 78 | 1015.6 |
| 20260904080542 | 76 | 209 | 0.0 | 2.0 | 0.00 | 0.00 | 0.00 | 78 | 1015.5 |
| 20260904080101 | 76 | 0 | 0.0 | 0.0 | 0.00 | 0.00 | 0.00 | 78 | 1015.5 |
| 20260904075543 | 76 | 0 | 0.0 | 2.0 | 0.00 | 0.00 | 0.00 | 78 | 1015.6 |
| 20260904075042 | 76 | 0 | 0.0 | 2.0 | 0.00 | 0.00 | 0.00 | 78 | 1015.5 |
| 20260904074603 | 76 | 163 | 0.0 | 4.0 | 0.00 | 0.00 | 0.00 | 77 | 1015.6 |
| 20260904074044 | 77 | 0 | 0.0 | 4.0 | 0.00 | 0.00 | 0.00 | 77 | 1015.6 |
| 20260904073542 | 76 | 0 | 0.0 | 3.0 | 0.00 | 0.00 | 0.00 | 77 | 1015.6 |
| 20260904073103 | 77 | 0 | 0.0 | 3.0 | 0.00 | 0.00 | 0.00 | 77 | 1015.6 |
| 20260904072544 | 77 | 0 | 0.0 | 3.0 | 0.00 | 0.00 | 0.00 | 77 | 1015.6 |
| 20260904072045 | 77 | 0 | 0.0 | 3.0 | 0.00 | 0.00 | 0.00 | 76 | 1015.5 |
| 20260904071606 | 77 | 142 | 0.0 | 3.0 | 0.00 | 0.00 | 0.00 | 76 | 1015.5 |
| 20260904071044 | 77 | 163 | 0.0 | 2.0 | 0.00 | 0.00 | 0.00 | 76 | 1015.4 |
| 20260904070543 | 77 | 175 | 0.0 | 2.0 | 0.00 | 0.00 | 0.00 | 76 | 1015.5 |
| 20260904070114 | 77 | 0 | 0.0 | 4.0 | 0.00 | 0.00 | 0.00 | 76 | 1015.5 |
| 20260904065542 | 77 | 173 | 0.0 | 4.0 | 0.00 | 0.00 | 0.00 | 75 | 1015.5 |
| 20260904065042 | 77 | 146 | 1.0 | 4.0 | 0.00 | 0.00 | 0.00 | 76 | 1015.5 |
| 20260904064605 | 77 | 148 | 0.0 | 3.0 | 0.00 | 0.00 | 0.00 | 75 | 1015.6 |
| 20260904064042 | 77 | 0 | 0.0 | 4.0 | 0.00 | 0.00 | 0.00 | 75 | 1015.6 |
| 20260904063542 | 77 | 157 | 0.0 | 4.0 | 0.00 | 0.00 | 0.00 | 75 | 1015.6 |
| 20260904063118 | 77 | 175 | 0.0 | 2.0 | 0.00 | 0.00 | 0.00 | 74 | 1015.5 |
| 20260904062542 | 77 | 158 | 0.0 | 6.0 | 0.00 | 0.00 | 0.00 | 74 | 1015.5 |
| 20260904062042 | 77 | 143 | 0.0 | 6.0 | 0.00 | 0.00 | 0.00 | 74 | 1015.5 |
| 20260904061642 | 78 | 175 | 0.0 | 4.0 | 0.00 | 0.00 | 0.00 | 74 | 1015.6 |
| 20260904061042 | 78 | 0 | 1.0 | 4.0 | 0.00 | 0.00 | 0.00 | 73 | 1015.6 |
| 20260904060545 | 78 | 175 | 0.0 | 3.0 | 0.00 | 0.00 | 0.00 | 73 | 1015.6 |
| 20260904060106 | 78 | 160 | 0.0 | 3.0 | 0.00 | 0.00 | 0.00 | 73 | 1015.5 |
| 20260904055541 | 78 | 137 | 0.0 | 4.0 | 0.00 | 0.00 | 0.00 | 73 | 1015.6 |
| 20260904055041 | 78 | 0 | 0.0 | 4.0 | 0.00 | 0.00 | 0.00 | 73 | 1015.6 |
| 20260904054613 | 78 | 142 | 1.0 | 4.0 | 0.00 | 0.00 | 0.00 | 73 | 1015.6 |
| 20260904054043 | 78 | 0 | 0.0 | 2.0 | 0.00 | 0.00 | 0.00 | 73 | 1015.7 |
| 20260904053542 | 78 | 0 | 0.0 | 2.0 | 0.00 | 0.00 | 0.00 | 72 | 1015.7 |
| 20260904053104 | 78 | 0 | 0.0 | 4.0 | 0.00 | 0.00 | 0.00 | 72 | 1015.6 |
| 20260904052543 | 78 | 146 | 0.0 | 4.0 | 0.00 | 0.00 | 0.00 | 72 | 1015.7 |
| 20260904052043 | 78 | 134 | 1.0 | 4.0 | 0.00 | 0.00 | 0.00 | 72 | 1015.7 |
| 20260904051607 | 78 | 153 | 0.0 | 2.0 | 0.00 | 0.00 | 0.00 | 72 | 1015.6 |
| 20260904051041 | 78 | 126 | 0.0 | 2.0 | 0.00 | 0.00 | 0.00 | 72 | 1015.6 |
| 20260904050542 | 78 | 0 | 0.0 | 2.0 | 0.00 | 0.00 | 0.00 | 72 | 1015.6 |
| 20260904050106 | 78 | 150 | 0.0 | 3.0 | 0.00 | 0.00 | 0.00 | 71 | 1015.6 |
| 20260904045542 | 78 | 158 | 0.0 | 3.0 | 0.00 | 0.00 | 0.00 | 71 | 1015.6 |
| 20260904045042 | 78 | 162 | 0.0 | 3.0 | 0.00 | 0.00 | 0.00 | 71 | 1015.6 |
| 20260904044601 | 78 | 160 | 0.0 | 1.0 | 0.00 | 0.00 | 0.00 | 71 | 1015.6 |
| 20260904044042 | 78 | 0 | 0.0 | 1.0 | 0.00 | 0.00 | 0.00 | 70 | 1015.6 |
| 20260904043541 | 78 | 0 | 0.0 | 0.0 | 0.00 | 0.00 | 0.00 | 71 | 1015.6 |
| 20260904043104 | 78 | 0 | 0.0 | 0.0 | 0.00 | 0.00 | 0.00 | 70 | 1015.5 |
| 20260904042542 | 78 | 0 | 0.0 | 0.0 | 0.00 | 0.00 | 0.00 | 70 | 1015.5 |
| 20260904042042 | 78 | 0 | 0.0 | 0.0 | 0.00 | 0.00 | 0.00 | 69 | 1015.6 |
| 20260904041603 | 79 | 0 | 0.0 | 0.0 | 0.00 | 0.00 | 0.00 | 69 | 1015.6 |
| 20260904041046 | 79 | 0 | 0.0 | 0.0 | 0.00 | 0.00 | 0.00 | 69 | 1015.6 |
| 20260904040544 | 79 | 0 | 0.0 | 0.0 | 0.00 | 0.00 | 0.00 | 68 | 1015.6 |
| 20260904040107 | 80 | 0 | 0.0 | 0.0 | 0.00 | 0.00 | 0.00 | 67 | 1015.6 |
| 20260904035543 | 80 | 0 | 0.0 | 0.0 | 0.00 | 0.00 | 0.00 | 66 | 1015.5 |
| 20260904035042 | 80 | 0 | 0.0 | 0.0 | 0.00 | 0.00 | 0.00 | 66 | 1015.5 |
| 20260904034603 | 81 | 0 | 0.0 | 3.0 | 0.00 | 0.00 | 0.00 | 65 | 1015.5 |
| 20260904034042 | 81 | 0 | 0.0 | 3.0 | 0.00 | 0.00 | 0.00 | 64 | 1015.5 |
| 20260904033544 | 81 | 129 | 0.0 | 3.0 | 0.00 | 0.00 | 0.00 | 64 | 1015.5 |
| 20260904033104 | 81 | 132 | 1.0 | 4.0 | 0.00 | 0.00 | 0.00 | 64 | 1015.6 |
| 20260904032543 | 82 | 141 | 1.0 | 6.0 | 0.00 | 0.00 | 0.00 | 64 | 1015.5 |
| 20260904032042 | 82 | 181 | 2.0 | 6.0 | 0.00 | 0.00 | 0.00 | 64 | 1015.5 |
| 20260904031603 | 81 | 126 | 1.0 | 4.0 | 0.00 | 0.00 | 0.00 | 64 | 1015.5 |
| 20260904031042 | 81 | 150 | 2.0 | 4.0 | 0.00 | 0.00 | 0.00 | 64 | 1015.5 |
| 20260904030545 | 81 | 133 | 1.0 | 3.0 | 0.00 | 0.00 | 0.00 | 64 | 1015.5 |
| 20260904030137 | 81 | 130 | 1.0 | 3.0 | 0.00 | 0.00 | 0.00 | 64 | 1015.3 |
| 20260904025546 | 81 | 0 | 0.0 | 3.0 | 0.00 | 0.00 | 0.00 | 64 | 1015.4 |
| 20260904025042 | 81 | 148 | 0.0 | 3.0 | 0.00 | 0.00 | 0.00 | 64 | 1015.4 |
| 20260904024611 | 82 | 0 | 0.0 | 2.0 | 0.00 | 0.00 | 0.00 | 63 | 1015.4 |
| 20260904024041 | 82 | 136 | 0.0 | 3.0 | 0.00 | 0.00 | 0.00 | 63 | 1015.2 |
| 20260904023543 | 82 | 138 | 1.0 | 3.0 | 0.00 | 0.00 | 0.00 | 62 | 1015.2 |
| 20260904023105 | 82 | 150 | 0.0 | 1.0 | 0.00 | 0.00 | 0.00 | 62 | 1015.2 |
| 20260904022542 | 83 | 0 | 0.0 | 2.0 | 0.00 | 0.00 | 0.00 | 61 | 1015.2 |
| 20260904022043 | 83 | 0 | 0.0 | 2.0 | 0.00 | 0.00 | 0.00 | 61 | 1015.1 |
| 20260904021607 | 83 | 142 | 1.0 | 2.0 | 0.00 | 0.00 | 0.00 | 60 | 1015.1 |
| 20260904021045 | 83 | 140 | 1.0 | 2.0 | 0.00 | 0.00 | 0.00 | 60 | 1015.1 |
| 20260904020543 | 84 | 134 | 0.0 | 2.0 | 0.00 | 0.00 | 0.00 | 60 | 1015.1 |
| 20260904015542 | 84 | 148 | 0.0 | 4.0 | 0.00 | 0.00 | 0.00 | 59 | 1014.9 |
| 20260904015046 | 84 | 145 | 1.0 | 4.0 | 0.00 | 0.00 | 0.00 | 59 | 1014.9 |
| 20260904014624 | 84 | 136 | 1.0 | 3.0 | 0.00 | 0.00 | 0.00 | 59 | 1014.7 |
| 20260904014043 | 84 | 146 | 0.0 | 3.0 | 0.00 | 0.00 | 0.00 | 58 | 1014.6 |
| 20260904013546 | 85 | 136 | 1.0 | 3.0 | 0.00 | 0.00 | 0.00 | 58 | 1014.6 |
| 20260904013057 | 85 | 138 | 0.0 | 2.0 | 0.00 | 0.00 | 0.00 | 57 | 1014.6 |
| 20260904012545 | 85 | 132 | 0.0 | 4.0 | 0.00 | 0.00 | 0.00 | 57 | 1014.5 |
| 20260904012043 | 86 | 136 | 1.0 | 4.0 | 0.00 | 0.00 | 0.00 | 56 | 1014.5 |
| 20260904011609 | 86 | 152 | 1.0 | 4.0 | 0.00 | 0.00 | 0.00 | 56 | 1014.4 |
| 20260904011042 | 86 | 136 | 1.0 | 4.0 | 0.00 | 0.00 | 0.00 | 56 | 1014.3 |
| 20260904010545 | 86 | 136 | 1.0 | 5.0 | 0.00 | 0.00 | 0.00 | 55 | 1014.3 |
| 20260904010104 | 87 | 140 | 1.0 | 5.0 | 0.00 | 0.00 | 0.00 | 55 | 1014.3 |
| 20260904005542 | 87 | 138 | 2.0 | 4.0 | 0.00 | 0.00 | 0.00 | 54 | 1014.3 |
| 20260904005042 | 88 | 150 | 1.0 | 6.0 | 0.00 | 0.00 | 0.00 | 54 | 1014.2 |
| 20260904004608 | 88 | 142 | 1.0 | 6.0 | 0.00 | 0.00 | 0.00 | 53 | 1014.2 |
| 20260904004042 | 88 | 98 | 2.0 | 6.0 | 0.00 | 0.00 | 0.00 | 52 | 1014.2 |
| 20260904003541 | 89 | 148 | 1.0 | 4.0 | 0.00 | 0.00 | 0.00 | 52 | 1014.2 |
| 20260904003106 | 90 | 196 | 1.0 | 4.0 | 0.00 | 0.00 | 0.00 | 50 | 1014.1 |
| 20260904002545 | 91 | 0 | 0.0 | 2.0 | 0.00 | 0.00 | 0.00 | 49 | 1014.3 |
| 20260904002044 | 91 | 0 | 0.0 | 4.0 | 0.00 | 0.00 | 0.00 | 48 | 1014.2 |
| 20260904001558 | 91 | 136 | 1.0 | 4.0 | 0.00 | 0.00 | 0.00 | 48 | 1014.1 |
| 20260904001042 | 92 | 123 | 0.0 | 1.0 | 0.00 | 0.00 | 0.00 | 47 | 1014.1 |
| 20260904000542 | 92 | 142 | 0.0 | 3.0 | 0.00 | 0.00 | 0.00 | 47 | 1014.1 |
| 20260904000125 | 93 | 154 | 0.0 | 3.0 | 0.00 | 0.00 | 0.00 | 47 | 1014.0 |
| 20260903235542 | 93 | 139 | 1.0 | 5.0 | 0.00 | 0.00 | 0.00 | 46 | 1014.1 |
| 20260903235043 | 93 | 0 | 0.0 | 7.0 | 0.00 | 0.00 | 0.00 | 46 | 1014.1 |
| 20260903234603 | 93 | 132 | 0.0 | 7.0 | 0.00 | 0.00 | 0.00 | 47 | 1014.1 |
| 20260903234045 | 93 | 229 | 1.0 | 8.0 | 0.00 | 0.00 | 0.00 | 46 | 1014.0 |
| 20260903233543 | 93 | 111 | 3.0 | 8.0 | 0.00 | 0.00 | 0.00 | 46 | 1014.0 |
| 20260903233102 | 93 | 154 | 3.0 | 9.0 | 0.00 | 0.00 | 0.00 | 46 | 1014.0 |
| 20260903232545 | 93 | 136 | 4.0 | 9.0 | 0.00 | 0.00 | 0.00 | 45 | 1014.0 |
| 20260903232042 | 93 | 132 | 4.0 | 8.0 | 0.00 | 0.00 | 0.00 | 45 | 1014.0 |
| 20260903231600 | 93 | 169 | 3.0 | 9.0 | 0.00 | 0.00 | 0.00 | 44 | 1013.9 |
| 20260903231042 | 93 | 143 | 3.0 | 9.0 | 0.00 | 0.00 | 0.00 | 45 | 1013.9 |
| 20260903230542 | 94 | 147 | 2.0 | 7.0 | 0.00 | 0.00 | 0.00 | 44 | 1013.9 |
| 20260903230100 | 94 | 121 | 2.0 | 7.0 | 0.00 | 0.00 | 0.00 | 44 | 1013.9 |
| 20260903225543 | 94 | 146 | 3.0 | 9.0 | 0.00 | 0.00 | 0.00 | 44 | 1013.9 |
| 20260903225042 | 94 | 150 | 3.0 | 9.0 | 0.00 | 0.00 | 0.00 | 44 | 1013.9 |
| 20260903224629 | 94 | 162 | 2.0 | 8.0 | 0.00 | 0.00 | 0.00 | 44 | 1013.9 |
| 20260903224044 | 94 | 123 | 3.0 | 8.0 | 0.00 | 0.00 | 0.00 | 43 | 1014.0 |
| 20260903223543 | 94 | 153 | 2.0 | 6.0 | 0.00 | 0.00 | 0.00 | 43 | 1014.0 |
| 20260903223101 | 95 | 133 | 3.0 | 6.0 | 0.00 | 0.00 | 0.00 | 43 | 1013.9 |
| 20260903222542 | 95 | 211 | 3.0 | 6.0 | 0.00 | 0.00 | 0.00 | 42 | 1014.0 |
| 20260903222043 | 95 | 118 | 2.0 | 5.0 | 0.00 | 0.00 | 0.00 | 44 | 1013.9 |
| 20260903221558 | 95 | 161 | 1.0 | 7.0 | 0.00 | 0.00 | 0.00 | 42 | 1013.8 |
| 20260903221042 | 96 | 200 | 3.0 | 8.0 | 0.00 | 0.00 | 0.00 | 42 | 1013.9 |
| 20260903220542 | 96 | 194 | 3.0 | 8.0 | 0.00 | 0.00 | 0.00 | 42 | 1013.8 |
| 20260903220108 | 97 | 197 | 2.0 | 8.0 | 0.00 | 0.00 | 0.00 | 41 | 1014.0 |
| 20260903215541 | 96 | 174 | 2.0 | 9.0 | 0.00 | 0.00 | 0.00 | 43 | 1013.9 |
| 20260903215043 | 96 | 159 | 4.0 | 9.0 | 0.00 | 0.00 | 0.00 | 41 | 1013.9 |
| 20260903214613 | 97 | 148 | 4.0 | 12.0 | 0.00 | 0.00 | 0.00 | 41 | 1014.0 |
| 20260903214042 | 97 | 160 | 4.0 | 12.0 | 0.00 | 0.00 | 0.00 | 41 | 1014.0 |
| 20260903213543 | 97 | 148 | 4.0 | 7.0 | 0.00 | 0.00 | 0.00 | 40 | 1014.0 |
| 20260903213113 | 97 | 241 | 3.0 | 6.0 | 0.00 | 0.00 | 0.00 | 39 | 1014.1 |
| 20260903212542 | 97 | 159 | 3.0 | 6.0 | 0.00 | 0.00 | 0.00 | 39 | 1014.1 |